Patrick Air Force Base, FL

8:34 AM EST on February 12, 2016 (GMT -0500)
Patrick Air Force Base

Weather History for KCOF - October, 2012

Change the Weather History Date:

Monday, October 8, 2012

  Actual Average Record
Temperature  
Mean Temperature 80 °F -  
Max Temperature 84 °F 81 °F 90 °F (2013)
Min Temperature 76 °F 73 °F 48 °F (2004)
Cooling Degree Days 14    
Growing Degree Days 30 (Base 50)    
Moisture  
Dew Point 73 °F    
Average Humidity 82    
Maximum Humidity 91    
Minimum Humidity 66    
Precipitation  
Precipitation 0.00 in - - ()
Sea Level Pressure  
Sea Level Pressure 30.00 in    
Wind  
Wind Speed 6 mph (SE)    
Max Wind Speed 14 mph    
Max Gust Speed -    
Visibility 10 miles    
Events      
Averages and records for this station are not official NWS values.
T = Trace of Precipitation, MM = Missing Value Source: NWS Daily Summary

Daily Weather History Graph

Daily Weather History Graph

Search for Another Location

Airport or City:

Trip Planner

Search our weather history database for the weather conditions in past years. The results will help you decide how hot, cold, wet, or windy it might be!

Date:

Astronomy

Oct. 08, 2012 Rise Set
Actual Time 7:19 AM EDT 6:59 PM EDT
Civil Twilight 6:55 AM EDT 7:23 PM EDT
Nautical Twilight 6:28 AM EDT 7:50 PM EDT
Astronomical Twilight 6:01 AM EDT 8:17 PM EDT
Moon 12:30 AM EDT (10/8) 2:17 PM EDT (10/8)
Length of Visible Light 12h 27m
Length of Day
11h 40m
Waning Gibbous, 46% of the Moon is Illuminated
Oct 8
Waning Gibbous
Oct 15
New
Oct 21
First Quarter
Oct 29
Full
Nov 6
Last Quarter

Hourly Weather History & Observations

Time (EDT) Temp. Heat Index Dew Point Humidity Pressure Visibility Wind Dir Wind Speed Gust Speed Precip Events Conditions
12:55 AM 79.2 °F - 74.8 °F 87% 29.99 in 10.0 mi West 4.6 mph - N/A   Clear
1:55 AM 78.4 °F - 75.4 °F 90% 29.97 in 10.0 mi WNW 4.6 mph - N/A   Clear
2:55 AM 78.1 °F - 75.4 °F 91% 29.96 in 10.0 mi Calm Calm - N/A   Clear
3:55 AM 78.1 °F - 75.4 °F 91% 29.96 in 10.0 mi NNW 4.6 mph - N/A   Clear
4:55 AM 78.4 °F - 75.2 °F 90% 29.96 in 10.0 mi Calm Calm - N/A   Scattered Clouds
5:55 AM 78.3 °F - 75.4 °F 91% 29.98 in 10.0 mi NNW 6.9 mph - N/A   Clear
6:55 AM 77.7 °F - 71.6 °F 81% 29.99 in 10.0 mi North 6.9 mph - N/A   Clear
7:55 AM 76.8 °F - 70.0 °F 79% 30.01 in 10.0 mi East 10.4 mph - N/A   Scattered Clouds
8:55 AM 76.5 °F - 71.8 °F 85% 30.04 in 10.0 mi ESE 13.8 mph - N/A   Mostly Cloudy
9:36 AM 77.0 °F - 71.6 °F 83% 30.04 in 10.0 mi ESE 10.4 mph - N/A   Drizzle
9:55 AM 76.6 °F - 71.2 °F 83% 30.04 in 10.0 mi ESE 10.4 mph - 0.00 in   Light Drizzle
10:55 AM 78.6 °F - 73.0 °F 83% 30.05 in 10.0 mi ESE 6.9 mph - N/A   Clear
11:55 AM 80.8 °F 85.4 °F 73.0 °F 77% 30.05 in 10.0 mi ESE 5.8 mph - N/A   Clear
12:55 PM 81.9 °F 86.2 °F 71.4 °F 70% 30.03 in 10.0 mi SE 10.4 mph - N/A   Clear
1:55 PM 83.3 °F 88.2 °F 71.2 °F 67% 30.00 in 10.0 mi ESE 10.4 mph - N/A   Clear
2:55 PM 83.3 °F 87.9 °F 70.7 °F 66% 29.96 in 10.0 mi SE 6.9 mph - N/A   Clear
3:55 PM 81.9 °F 86.4 °F 71.6 °F 71% 29.95 in 10.0 mi SSE 6.9 mph - N/A   Clear
4:55 PM 82.6 °F 87.6 °F 71.8 °F 70% 29.96 in 10.0 mi SSE 8.1 mph - N/A   Clear
5:55 PM 81.5 °F 86.9 °F 73.8 °F 77% 29.96 in 10.0 mi SSE 9.2 mph - N/A   Clear
6:55 PM 80.4 °F 84.8 °F 73.0 °F 78% 29.97 in 10.0 mi SE 4.6 mph - N/A   Clear
7:55 PM 80.1 °F 84.2 °F 73.0 °F 79% 29.97 in 10.0 mi SE 6.9 mph - N/A   Clear
8:30 PM 80.6 °F 85.4 °F 73.4 °F 79% 29.99 in 10.0 mi SE 3.5 mph - N/A   Light Drizzle
8:55 PM 80.2 °F 85.2 °F 74.7 °F 83% 30.00 in 10.0 mi South 3.5 mph - 0.00 in   Light Drizzle
9:05 PM 80.6 °F 86.2 °F 75.2 °F 84% 30.01 in 10.0 mi Calm Calm - N/A   Clear
9:23 PM 78.8 °F - 75.2 °F 89% 30.01 in 10.0 mi Calm Calm - N/A   Light Drizzle
9:55 PM 79.5 °F - 75.4 °F 87% 30.01 in 10.0 mi South 4.6 mph - 0.00 in   Light Drizzle
10:55 PM 79.3 °F - 76.3 °F 90% 30.03 in 10.0 mi West 3.5 mph - N/A   Partly Cloudy
11:55 PM 78.4 °F - 75.7 °F 91% 30.03 in 10.0 mi West 5.8 mph - N/A   Clear